CYQFCYDQ

Guest
Details From CYQF - RED DEER REGIONAL
To CYDQ - DAWSON CREEK
Flight Number -
Tags generated
Created
Modified
Stats Distance 315 nm / 584 km
Max Altitude 18,900 ft / 5,761 m
Waypoints 4
Social Downloads 0
Likes 0
Share VATSIM

Download

Looking for another format? Having issues loading an existing format? Contact us
Advertisement - Login to hide

Notes

Basic altitude profile: - Ascent Rate: 2500ft/min - Ascent Speed: 250kts - Cruise Altitude: 35000ft - Cruise Speed: 420kts - Descent Rate: 1500ft/min - Descent Speed: 250kts

Route

CYQF YRM J485 YQU CYDQ

ID Type Via Altitude Latitude Longitude Leg Dist Tot Dist Heading (true) Name
O CYQF APT - 0 ft / 0 m 52.18257˚ -113.89369˚ - 0 nm - RED DEER REGIONAL
YRM VOR - 18,900 ft / 5,761 m 52.50219˚ -115.32356˚ 55 nm 55 nm 291° / 290° ROCKY MOUNTAIN VOR-DME
YQU VOR J485 (AWY-HI) 18,000 ft / 5,486 m 55.17422˚ -119.03019˚ 207 nm 263 nm 322° / 319° GRANDE PRAIRIE VOR-DME
O CYDQ APT - 0 ft / 0 m 55.74167˚ -120.18152˚ 51 nm 315 nm 311° / 311° DAWSON CREEK

Altitude Profile

Advertisement - Login to hide

Weather


0- 5 10 15 20 25 30 35+ Temperature / ° C

Clouds and Precipitation
Forecast for 2018-05-21 12:00 UTC. Updated 10 minutes ago

Ground ~20,000 ft ~40,000 ft Winds

CYQF

Details ICAO CYQF (YQF)
Name RED DEER REGIONAL
Region Canada
Timezone America/Edmonton (UTC-6.0)
Stats Elevation 2,968 ft / 905 m (AMSL)
Location 52.182568° -113.893686°
Runways 2
Magnetic Variation 14.187° E

METAR

CYQF 211100Z 32006KT 270V340 15SM BKN250 10/07 A2987 RMK CI6 SLP117 DENSITY ALT 3100FT

Decode

TAF

TAF AMD TAF AMD CYQF 210634Z 2106/2118 30008KT P6SM FEW090 BKN170 TEMPO 2106/2110 VRB15G25KT P6SM -TSRA BKN080CB FM211200 32008KT P6SM SKC BECMG 2114/2116 32015KT FM211700 33012G22KT P6SM SCT050 RMK NXT FCST BY 211200Z

Decode

Departure Runways

ID Width Length Bearing (true) Bearing (mag) Surface Threshold Offset Overrun Length
11 100 ft / 30 m 3,480 ft / 1,061 m 129.84° 115.65° Asphalt 0 ft / 0 m 0 ft / 0 m
16 98 ft / 30 m 5,575 ft / 1,699 m 180.00° 165.81° Asphalt 0 ft / 0 m 0 ft / 0 m
29 100 ft / 30 m 3,480 ft / 1,061 m 309.85° 295.66° Asphalt 0 ft / 0 m 0 ft / 0 m
34 98 ft / 30 m 5,575 ft / 1,699 m 0.00° 345.81° Asphalt 0 ft / 0 m 0 ft / 0 m

CYDQ

Details ICAO CYDQ (YDQ)
Name DAWSON CREEK
Region Canada
Timezone America/Dawson_Creek (UTC-7.0)
Stats Elevation 2,148 ft / 655 m (AMSL)
Location 55.741667° -120.181525°
Runways 1
Magnetic Variation 17.201° E

METAR

CYDQ 211100Z AUTO 27010G15KT 9SM CLR 14/07 A2981 RMK SLP099 DENSITY ALT 2600FT

Decode

TAF

TAF CYDQ 210038Z 2101/2105 24012G22KT P6SM SCT100 TEMPO 2101/2105 P6SM -SHRA VCTS BKN100CB RMK FCST BASED ON AUTO OBS. NXT FCST WILL BE ISSUED AT 211245Z

Decode

Destination Runways

ID Width Length Bearing (true) Bearing (mag) Surface Threshold Offset Overrun Length
06 150 ft / 46 m 4,982 ft / 1,519 m 85.32° 68.12° Asphalt 0 ft / 0 m 0 ft / 0 m
24 150 ft / 46 m 4,982 ft / 1,519 m 265.34° 248.14° Asphalt 0 ft / 0 m 0 ft / 0 m